Location: Catstown
(52.4386°N, 7.2633°W)
Time: 12:35:41
(UTC+00:00)

USA 234 - Pass Details

Date: 18 September 2020
Orbit: 1102 x 1106 km, 123.0° (Epoch: 16 October)

Event Time Altitude Azimuth Distance (km) Brightness Sun altitude
Rises 23:44:39 0° 74° (ENE) 3,923 6.2 -35.6°
Reaches altitude 10° 23:47:09 10° 72° (ENE) 2,965 5.6 -35.7°
Enters shadow 23:50:38 34° 60° (ENE) 1,751 4.4 -35.8°
Exits shadow 23:54:28 57° 319° (NW) 1,286 3.7 -35.8°
Drops below altitude 10° 00:00:01 10° 275° (W) 2,966 5.6 -36.0°
Sets 00:02:31 0° 273° (W) 3,924 6.3 -36.0°
